EW1628 Weather Reports


time (UTC)temp
C
wind
direction
speed
KPH
gust
KPH
rain 1hr
cm
rain 24hr
cm
rain mn
cm
humidity
%
barometer
mb
20260507004504 24 272 8.0 19.3 0.00 0.00 0.00 56 1016.4
20260507004003 24 254 6.4 19.3 0.00 0.00 0.00 56 1016.5
20260507003503 24 269 6.4 16.1 0.00 0.00 0.00 56 1016.4
20260507003004 24 274 8.0 20.9 0.00 0.00 0.00 57 1016.4
20260507002524 24 284 6.4 20.9 0.00 0.00 0.00 58 1016.4
20260507002003 23 296 4.8 14.5 0.00 0.00 0.00 58 1016.4
20260507001525 24 292 6.4 16.1 0.00 0.00 0.00 54 1016.4
20260507001025 24 289 8.0 16.1 0.00 0.00 0.00 55 1016.4
20260507000504 24 291 8.0 16.1 0.00 0.00 0.00 56 1016.4
20260507000004 24 316 8.0 17.7 0.00 0.00 0.00 56 1016.4
20260506235504 24 324 8.0 17.7 0.00 0.00 0.00 55 1016.5
20260506235004 25 316 8.0 17.7 0.00 0.00 0.00 56 1016.5
20260506234525 25 281 6.4 16.1 0.00 0.00 0.00 57 1016.5
20260506234003 24 275 9.7 19.3 0.00 0.00 0.00 56 1016.4
20260506233503 25 302 8.0 19.3 0.00 0.00 0.00 54 1016.5
20260506233003 25 339 4.8 14.5 0.00 0.00 0.00 54 1016.6
20260506232503 25 320 4.8 12.9 0.00 0.00 0.00 54 1016.5
20260506232004 25 274 4.8 17.7 0.00 0.00 0.00 53 1016.6
20260506231504 25 276 6.4 17.7 0.00 0.00 0.00 55 1016.6
20260506231024 24 287 6.4 17.7 0.00 0.00 0.00 56 1016.7
20260506230525 24 343 4.8 14.5 0.00 0.00 0.00 54 1016.6
20260506230004 24 1 4.8 9.7 0.00 0.00 0.00 52 1016.8
20260506225525 25 324 4.8 9.7 0.00 0.00 0.00 55 1016.8
20260506225004 24 315 3.2 12.9 0.00 0.00 0.00 55 1016.8
20260506224504 24 352 4.8 14.5 0.00 0.00 0.00 56 1016.9
20260506224004 24 2 4.8 14.5 0.00 0.00 0.00 52 1016.9
20260506223503 24 352 6.4 16.1 0.00 0.00 0.00 53 1017.0
20260506223024 24 343 6.4 16.1 0.00 0.00 0.00 54 1017.1
20260506222524 24 324 4.8 9.7 0.00 0.00 0.00 54 1017.0
20260506222004 24 316 3.2 12.9 0.00 0.00 0.00 53 1017.2
20260506221504 24 356 4.8 17.7 0.00 0.00 0.00 54 1017.2
20260506221003 24 341 4.8 17.7 0.00 0.00 0.00 53 1017.3
20260506220503 24 294 6.4 16.1 0.00 0.00 0.00 54 1017.3
20260506220004 24 293 6.4 14.5 0.00 0.00 0.00 52 1017.5
20260506215504 23 311 6.4 16.1 0.00 0.00 0.00 55 1017.4
20260506215004 23 311 8.0 16.1 0.00 0.00 0.00 56 1017.5
20260506214525 23 301 6.4 16.1 0.00 0.00 0.00 54 1017.5
20260506214003 23 275 8.0 14.5 0.00 0.00 0.00 56 1017.5
20260506213503 23 261 9.7 16.1 0.00 0.00 0.00 52 1017.6
20260506213004 23 256 8.0 16.1 0.00 0.00 0.00 54 1017.6
20260506212504 23 277 6.4 16.1 0.00 0.00 0.00 55 1017.6
20260506212003 23 314 6.4 14.5 0.00 0.00 0.00 58 1017.8
20260506211503 22 328 6.4 14.5 0.00 0.00 0.00 58 1017.8
20260506211004 22 347 4.8 14.5 0.00 0.00 0.00 59 1017.7
20260506210503 22 355 4.8 14.5 0.00 0.00 0.00 59 1017.9
20260506210004 22 16 4.8 14.5 0.00 0.00 0.00 59 1017.9
20260506205503 22 19 6.4 14.5 0.00 0.00 0.00 59 1018.0
20260506205004 22 346 8.0 19.3 0.00 0.00 0.00 58 1018.0
20260506204504 22 332 8.0 19.3 0.00 0.00 0.00 58 1018.1
20260506204004 22 340 6.4 19.3 0.00 0.00 0.00 62 1018.3
20260506203503 22 345 6.4 19.3 0.00 0.00 0.00 61 1018.2
20260506203004 22 300 6.4 14.5 0.00 0.00 0.00 60 1018.3
20260506202503 22 303 8.0 14.5 0.00 0.00 0.00 59 1018.4
20260506202004 22 352 6.4 14.5 0.00 0.00 0.00 60 1018.4
20260506201524 22 337 6.4 14.5 0.00 0.00 0.00 60 1018.5
20260506201003 22 312 4.8 14.5 0.00 0.00 0.00 61 1018.6
20260506200504 21 347 4.8 14.5 0.00 0.00 0.00 63 1018.6
20260506200004 21 7 4.8 14.5 0.00 0.00 0.00 61 1018.6
20260506195504 21 99 3.2 11.3 0.00 0.00 0.00 60 1018.7
20260506195004 21 38 4.8 14.5 0.00 0.00 0.00 60 1018.7
20260506194504 21 5 6.4 16.1 0.00 0.00 0.00 61 1018.8
20260506194003 21 1 6.4 16.1 0.00 0.00 0.00 61 1018.9
20260506193503 21 352 4.8 14.5 0.00 0.00 0.00 62 1019.0
20260506193003 21 41 4.8 14.5 0.00 0.00 0.00 61 1018.9
20260506192504 21 47 6.4 17.7 0.00 0.00 0.00 60 1019.0
20260506192003 21 8 8.0 19.3 0.00 0.00 0.00 62 1019.2
20260506191504 21 333 6.4 19.3 0.00 0.00 0.00 62 1019.2
20260506191004 21 316 4.8 12.9 0.00 0.00 0.00 62 1019.2
20260506190504 21 313 6.4 12.9 0.00 0.00 0.00 63 1019.2
20260506190004 21 305 8.0 14.5 0.00 0.00 0.00 63 1019.2
20260506185524 21 326 4.8 14.5 0.00 0.00 0.00 63 1019.2
20260506185003 21 32 3.2 11.3 0.00 0.00 0.00 64 1019.2
20260506184503 20 62 3.2 11.3 0.00 0.00 0.00 64 1019.3
20260506184003 20 21 4.8 12.9 0.00 0.00 0.00 64 1019.3
20260506183503 20 25 4.8 12.9 0.00 0.00 0.00 65 1019.4
20260506183003 20 34 3.2 8.0 0.00 0.00 0.00 66 1019.4
20260506182503 20 337 4.8 12.9 0.00 0.00 0.00 68 1019.5
20260506182025 20 324 6.4 12.9 0.00 0.00 0.00 67 1019.5
20260506181504 20 309 4.8 12.9 0.00 0.00 0.00 67 1019.4
20260506181004 20 302 3.2 9.7 0.00 0.00 0.00 68 1019.3
20260506180524 19 290 4.8 9.7 0.00 0.00 0.00 72 1019.4
20260506180004 19 276 3.2 8.0 0.00 0.00 0.00 68 1019.4
20260506175503 18 243 4.8 8.0 0.00 0.00 0.00 72 1019.5
20260506175004 18 227 4.8 8.0 0.00 0.00 0.00 69 1019.5
20260506174525 18 212 3.2 8.0 0.00 0.00 0.00 73 1019.5
20260506174003 18 53 3.2 6.4 0.00 0.00 0.00 72 1019.5
20260506173524 18 252 3.2 6.4 0.00 0.00 0.00 72 1019.6
20260506173003 18 238 3.2 9.7 0.00 0.00 0.00 74 1019.6
20260506172504 17 277 3.2 9.7 0.00 0.00 0.00 73 1019.6
20260506172004 17 294 3.2 9.7 0.00 0.00 0.00 73 1019.7
20260506171504 17 306 3.2 9.7 0.00 0.00 0.00 70 1019.6
20260506171003 17 84 3.2 6.4 0.00 0.00 0.00 73 1019.7
20260506170504 17 108 1.6 6.4 0.00 0.00 0.00 76 1019.7
20260506170004 17 101 1.6 6.4 0.00 0.00 0.00 75 1019.8
20260506165504 17 152 3.2 6.4 0.00 0.00 0.00 75 1019.7
20260506165003 16 216 3.2 9.7 0.00 0.00 0.00 74 1019.6
20260506164503 17 211 4.8 9.7 0.00 0.00 0.00 73 1019.7
20260506164003 17 187 3.2 9.7 0.00 0.00 0.00 74 1019.6
20260506163504 17 173 3.2 6.4 0.00 0.00 0.00 76 1019.7
20260506163004 16 166 3.2 4.8 0.00 0.00 0.00 76 1019.7
20260506162504 16 160 4.8 9.7 0.00 0.00 0.00 77 1019.7
20260506162003 16 173 4.8 9.7 0.00 0.00 0.00 78 1019.7
20260506161525 16 155 3.2 9.7 0.00 0.00 0.00 76 1019.8
20260506161004 16 141 4.8 9.7 0.00 0.00 0.00 78 1019.7
20260506160525 16 151 3.2 9.7 0.00 0.00 0.00 78 1019.7
20260506160004 16 143 1.6 6.4 0.00 0.00 0.00 77 1019.7
20260506155504 16 193 3.2 8.0 0.00 0.00 0.00 79 1019.8
20260506155004 15 187 3.2 8.0 0.00 0.00 0.00 79 1019.7
20260506154504 15 115 3.2 9.7 0.00 0.00 0.00 81 1019.8
20260506154004 15 147 3.2 9.7 0.00 0.00 0.00 82 1019.7
20260506153525 15 213 3.2 6.4 0.00 0.00 0.00 84 1019.8
20260506153004 14 204 1.6 6.4 0.00 0.00 0.00 83 1019.9
20260506152504 14 199 1.6 4.8 0.00 0.00 0.00 85 1019.8
20260506152024 14 174 3.2 8.0 0.00 0.00 0.00 86 1019.9
20260506151504 13 144 3.2 8.0 0.00 0.00 0.00 88 1019.9
20260506151003 13 141 1.6 8.0 0.00 0.00 0.00 90 1019.8
20260506150503 13 181 1.6 8.0 0.00 0.00 0.00 90 1019.8
20260506150004 12 200 1.6 6.4 0.00 0.00 0.00 91 1019.8
20260506145525 12 163 1.6 6.4 0.00 0.00 0.00 91 1019.8
20260506145003 12 142 1.6 6.4 0.00 0.00 0.00 92 1019.9
20260506144503 12 119 1.6 4.8 0.00 0.00 0.00 92 1019.8
20260506144025 11 131 1.6 6.4 0.00 0.00 0.00 92 1019.8
20260506143504 11 147 1.6 6.4 0.00 0.00 0.00 92 1019.8
20260506143004 11 174 1.6 3.2 0.00 0.00 0.00 92 1019.8
20260506142504 11 173 0.0 3.2 0.00 0.00 0.00 92 1019.7
20260506142003 11 173 1.6 3.2 0.00 0.00 0.00 92 1019.6
20260506141525 11 173 0.0 3.2 0.00 0.00 0.00 92 1019.5
20260506141003 11 0 0.0 0.0 0.00 0.00 0.00 92 1019.4
20260506140503 11 0 0.0 0.0 0.00 0.00 0.00 92 1019.4
20260506140025 11 173 0.0 1.6 0.00 0.00 0.00 92 1019.2
20260506135503 11 173 0.0 1.6 0.00 0.00 0.00 92 1019.3
20260506135004 11 173 0.0 1.6 0.00 0.00 0.00 92 1019.3
20260506134504 11 173 0.0 1.6 0.00 0.00 0.00 92 1019.2
20260506134004 11 0 0.0 0.0 0.00 0.00 0.00 92 1019.2
20260506133504 11 173 0.0 3.2 0.00 0.00 0.00 92 1019.2
20260506133004 11 173 0.0 3.2 0.00 0.00 0.00 92 1019.2
20260506132504 11 173 0.0 1.6 0.00 0.00 0.00 91 1019.2
20260506132025 11 173 0.0 1.6 0.00 0.00 0.00 91 1019.2
20260506131504 11 173 0.0 1.6 0.00 0.00 0.00 91 1019.1
20260506131025 11 0 0.0 0.0 0.00 0.00 0.00 91 1019.1
20260506130503 11 0 0.0 0.0 0.00 0.00 0.00 91 1019.0
20260506130024 11 0 0.0 0.0 0.00 0.00 0.00 91 1019.0
20260506125503 11 0 0.0 0.0 0.00 0.00 0.00 91 1019.0
20260506125004 11 0 0.0 0.0 0.00 0.00 0.00 91 1018.9
20260506124524 11 0 0.0 0.0 0.00 0.00 0.00 91 1018.9
20260506124004 11 173 0.0 1.6 0.00 0.00 0.00 91 1018.8
20260506123503 11 173 0.0 1.6 0.00 0.00 0.00 91 1018.8
20260506123025 11 173 0.0 1.6 0.00 0.00 0.00 91 1018.9
20260506122504 11 173 0.0 1.6 0.00 0.00 0.00 91 1019.0
20260506122004 11 173 0.0 3.2 0.00 0.00 0.00 92 1018.8
20260506121524 11 173 0.0 3.2 0.00 0.00 0.00 92 1018.8
20260506121004 11 173 0.0 4.8 0.00 0.00 0.00 92 1018.6
20260506120503 11 173 0.0 4.8 0.00 0.00 0.00 92 1018.7
20260506120024 11 0 0.0 0.0 0.00 0.03 0.00 92 1018.6
20260506115525 11 0 0.0 0.0 0.00 0.03 0.00 92 1018.7
20260506115024 11 0 0.0 0.0 0.00 0.03 0.00 92 1018.7
20260506114504 11 0 0.0 0.0 0.00 0.03 0.00 92 1018.7
20260506114003 11 0 0.0 0.0 0.00 0.03 0.00 92 1018.7
20260506113503 11 0 0.0 0.0 0.00 0.03 0.00 91 1018.7
20260506113003 11 0 0.0 0.0 0.00 0.03 0.00 91 1018.5
20260506112503 11 0 0.0 0.0 0.00 0.03 0.00 91 1018.5
20260506112003 11 0 0.0 0.0 0.00 0.03 0.00 91 1018.5
20260506111524 11 0 0.0 0.0 0.00 0.03 0.00 91 1018.5
20260506111004 11 0 0.0 0.0 0.00 0.03 0.00 91 1018.5
20260506110504 11 0 0.0 0.0 0.00 0.03 0.00 91 1018.4
20260506110004 11 0 0.0 0.0 0.00 0.03 0.00 91 1018.3
20260506105503 11 0 0.0 0.0 0.00 0.03 0.00 91 1018.3
20260506105003 11 0 0.0 0.0 0.00 0.03 0.00 91 1018.3
20260506104504 11 173 0.0 3.2 0.00 0.03 0.00 92 1018.3
20260506104004 11 173 0.0 3.2 0.00 0.03 0.00 92 1018.3
20260506103525 11 173 0.0 3.2 0.00 0.03 0.00 92 1018.3
20260506103025 11 173 1.6 3.2 0.00 0.03 0.00 92 1018.2
20260506102503 11 173 1.6 3.2 0.00 0.03 0.00 92 1018.2
20260506102003 11 173 0.0 3.2 0.00 0.03 0.00 92 1018.2
20260506101504 11 173 1.6 3.2 0.00 0.03 0.00 92 1018.2
20260506101003 11 173 1.6 3.2 0.00 0.03 0.00 92 1018.1
20260506100525 10 173 0.0 3.2 0.00 0.03 0.00 92 1018.1
20260506100004 10 0 0.0 0.0 0.00 0.03 0.00 92 1018.1
20260506095525 10 0 0.0 0.0 0.00 0.03 0.00 92 1018.2
20260506095004 10 0 0.0 0.0 0.00 0.03 0.00 92 1018.1
20260506094504 10 0 0.0 0.0 0.00 0.03 0.00 92 1018.2
20260506094004 10 0 0.0 0.0 0.00 0.03 0.00 92 1018.1
20260506093503 10 173 0.0 1.6 0.00 0.03 0.00 92 1018.0
20260506093004 10 173 0.0 1.6 0.00 0.03 0.00 92 1018.1
20260506092504 10 173 0.0 3.2 0.00 0.03 0.00 92 1018.1
20260506092004 10 173 1.6 3.2 0.00 0.03 0.00 92 1018.1
20260506091504 10 173 1.6 3.2 0.00 0.03 0.00 92 1018.1
20260506091003 10 173 1.6 3.2 0.00 0.03 0.00 92 1018.2
20260506090503 10 161 1.6 4.8 0.00 0.05 0.00 92 1018.1
20260506090004 10 114 1.6 4.8 0.00 0.05 0.00 92 1018.1
20260506085525 10 110 1.6 6.4 0.00 0.05 0.00 92 1018.2
20260506085004 10 154 1.6 6.4 0.00 0.05 0.00 92 1018.2
20260506083525 10 207 1.6 4.8 0.00 0.05 0.00 92 1018.1
20260506083004 10 207 1.6 4.8 0.00 0.05 0.00 91 1018.1
20260506082503 10 207 0.0 4.8 0.00 0.08 0.00 91 1018.1
20260506082003 10 207 1.6 4.8 0.00 0.08 0.00 91 1018.1
20260506081503 10 207 1.6 4.8 0.00 0.08 0.00 91 1018.2
20260506081004 10 207 0.0 1.6 0.00 0.13 0.00 91 1018.2
20260506080504 10 207 0.0 3.2 0.00 0.15 0.00 91 1018.2
20260506073504 10 207 0.0 1.6 0.00 0.18 0.00 90 1018.0
20260506073003 10 207 0.0 1.6 0.00 0.20 0.00 90 1017.8
20260506072524 10 0 0.0 0.0 0.00 0.20 0.00 90 1017.7
20260506072025 10 207 0.0 1.6 0.00 0.20 0.00 90 1017.8
20260506071504 10 207 0.0 3.2 0.00 0.23 0.00 90 1017.6
20260506071004 10 207 0.0 3.2 0.00 0.23 0.00 90 1017.5
20260506070524 10 207 0.0 1.6 0.00 0.25 0.00 90 1017.5
20260506062504 11 207 0.0 1.6 0.00 0.33 0.25 87 1017.2
20260506062003 11 207 0.0 1.6 0.00 0.33 0.25 87 1017.3
20260506061504 11 0 0.0 0.0 0.00 0.33 0.25 87 1017.2
20260506061004 11 0 0.0 0.0 0.00 0.36 0.25 86 1017.2
20260506060504 11 0 0.0 0.0 0.00 0.36 0.25 86 1017.1
20260506051003 12 188 1.6 6.4 0.00 0.38 0.25 85 1016.9
20260506050503 12 180 1.6 6.4 0.00 0.38 0.25 85 1016.9
20260506045004 13 211 0.0 1.6 0.00 0.41 0.25 84 1016.8
20260506044503 13 211 0.0 4.8 0.00 0.43 0.25 84 1016.8
20260506044003 13 211 1.6 6.4 0.00 0.43 0.25 84 1016.7
20260506043504 13 196 1.6 6.4 0.00 0.43 0.25 84 1016.6
20260506043003 13 207 3.2 8.0 0.00 0.43 0.25 83 1016.4
20260506042503 13 247 3.2 11.3 0.00 0.43 0.25 83 1016.4
20260506042004 13 243 3.2 11.3 0.00 0.43 0.25 83 1016.4
20260506041504 13 215 1.6 8.0 0.00 0.43 0.25 83 1016.2
20260506041003 13 212 1.6 8.0 0.00 0.43 0.25 82 1016.2
20260506040503 13 215 4.8 9.7 0.00 0.43 0.25 82 1016.2
20260506040004 13 223 3.2 9.7 0.00 0.43 0.25 82 1016.1
20260506035504 13 250 1.6 11.3 0.00 0.43 0.25 82 1016.1
20260506035004 13 251 3.2 11.3 0.00 0.43 0.25 81 1016.1
20260506034503 13 246 4.8 11.3 0.00 0.43 0.25 81 1016.0
20260506034024 13 251 3.2 11.3 0.00 0.43 0.25 81 1015.9
20260506033503 13 255 3.2 9.7 0.00 0.43 0.25 81 1015.8
20260506033004 13 248 4.8 11.3 0.00 0.43 0.25 81 1015.7
20260506032504 13 245 3.2 11.3 0.00 0.43 0.25 80 1015.7
20260506032004 14 240 3.2 9.7 0.00 0.43 0.25 80 1015.6
20260506031524 14 233 4.8 9.7 0.00 0.43 0.25 80 1015.5
20260506031003 14 236 3.2 11.3 0.00 0.43 0.25 79 1015.5
20260506030504 14 221 3.2 9.7 0.00 0.43 0.25 79 1015.3
20260506030004 14 193 3.2 6.4 0.00 0.43 0.25 80 1015.2
20260506025504 14 227 4.8 14.5 0.00 0.43 0.25 79 1015.3
20260506025004 14 237 4.8 14.5 0.00 0.43 0.25 78 1015.3
20260506024503 14 227 4.8 12.9 0.00 0.43 0.25 79 1015.3
20260506024004 14 236 6.4 19.3 0.00 0.43 0.25 78 1015.2
20260506023504 14 244 6.4 19.3 0.00 0.43 0.25 78 1015.2
20260506023003 14 233 6.4 16.1 0.00 0.43 0.25 77 1015.1
20260506022503 15 216 4.8 12.9 0.00 0.43 0.25 77 1015.1
20260506022004 15 222 6.4 14.5 0.00 0.43 0.25 78 1015.0
20260506021504 15 232 6.4 16.1 0.00 0.43 0.25 77 1015.0
20260506021004 15 232 6.4 17.7 0.00 0.43 0.25 77 1014.9
20260506020524 15 230 6.4 17.7 0.00 0.43 0.25 77 1014.8
20260506020004 15 240 8.0 22.5 0.00 0.43 0.25 77 1014.8
20260506015504 15 245 9.7 22.5 0.00 0.43 0.25 76 1014.7
20260506015004 15 239 8.0 16.1 0.00 0.43 0.25 76 1014.7
20260506014504 15 225 6.4 16.1 0.00 0.43 0.25 76 1014.7
20260506014004 15 231 8.0 17.7 0.00 0.43 0.25 76 1014.6
20260506013504 16 233 9.7 22.5 0.00 0.43 0.25 75 1014.6
20260506013004 16 237 9.7 22.5 0.00 0.43 0.25 75 1014.5
20260506012524 16 243 8.0 19.3 0.00 0.43 0.25 76 1014.6
20260506012003 16 229 6.4 17.7 0.00 0.43 0.25 75 1014.6
20260506011503 16 227 9.7 19.3 0.00 0.43 0.25 75 1014.7
20260506011003 16 230 9.7 19.3 0.00 0.43 0.25 74 1014.6
20260506010504 16 240 9.7 19.3 0.00 0.43 0.25 73 1014.6
20260506010003 16 241 9.7 17.7 0.00 0.43 0.25 73 1014.6
20260506005503 17 233 8.0 16.1 0.00 0.43 0.25 73 1014.6
20260506005004 17 239 6.4 14.5 0.00 0.43 0.25 75 1014.6